Clayton, Georgia
Current Conditions -  °F | °C
As of 6:15 AM on Friday 24 Oct 2014 (Local Time) from KTOC Reporting Station
Clear Clear  
Wind Chill: 47°   Ceiling: Unl
Heat Index: 47°   Visibility: 10mi
Dew Point: 44°   Wind: 0mph
Humidity: 89%   Direction: NA
Pressure: 30.06"   Gusts: NA
Location:  34.88°N, 83.4°W
Report Text: KTOC 241015Z AUTO 00000KT 10SM CLR 08/07 A3006 RMK AO2 T00820065
Loading
Personal Weather Stations






























Interactive Weather Map
Tropical Storm Tracking
New forecast layout! Learn more

10-Day Weather Forecast

Advertisements
Track Severe Weather on mobile